• în România
  • Lista ţărilor
  • Pe 7 zile
  • Temperatura apei
  • Hartă satelitară
  • Meteo pe hartă
  • Widget-uri
  • user-avatar
    Intrare

    Meteo pe oră la Shkoder

    Astăzi, 22 Februarie, Joi

    Timp Temperatura Precipitaţii Vânt Presiune Umiditate
    00:00 +5°C° 0,7 mm 3 m/s 731 mmHg 88%
    01:00 +5°C° 0 mm 3 m/s 731 mmHg 88%
    02:00 +5°C° 1,1 mm 3 m/s 731 mmHg 89%
    03:00 +5°C° 1,1 mm 3 m/s 731 mmHg 90%
    04:00 +5°C° 1,1 mm 3 m/s 731 mmHg 90%
    05:00 +5°C° 0,5 mm 3 m/s 731 mmHg 90%
    06:00 +6°C° 0,5 mm 2 m/s 732 mmHg 89%
    07:00 +5°C° 0 mm 3 m/s 732 mmHg 88%
    08:00 +7°C° 0,1 mm 3 m/s 732 mmHg 86%
    09:00 +8°C° 0,1 mm 2 m/s 732 mmHg 85%
    10:00 +9°C° 0,1 mm 2 m/s 732 mmHg 83%
    11:00 +10°C° 0 mm 2 m/s 732 mmHg 81%
    12:00 +10°C° 0 mm 2 m/s 732 mmHg 80%
    13:00 +12°C° 0 mm 2 m/s 733 mmHg 78%
    14:00 +12°C° 0 mm 2 m/s 733 mmHg 79%
    15:00 +12°C° 0 mm 1 m/s 733 mmHg 79%
    16:00 +12°C° 0 mm 1 m/s 733 mmHg 79%
    17:00 +11°C° 0,1 mm 1 m/s 733 mmHg 81%
    18:00 +9°C° 0,1 mm 2 m/s 733 mmHg 83%
    19:00 +8°C° 0,1 mm 2 m/s 733 mmHg 84%
    20:00 +8°C° 0,1 mm 2 m/s 734 mmHg 85%
    21:00 +8°C° 0,1 mm 2 m/s 734 mmHg 85%
    22:00 +7°C° 0,1 mm 2 m/s 734 mmHg 85%
    23:00 +7°C° 0 mm 2 m/s 734 mmHg 85%

    Mâine, 23 Februarie, Vineri

    Timp Temperatura Precipitaţii Vânt Presiune Umiditate
    00:00 +7°C° 0 mm 2 m/s 734 mmHg 85%
    01:00 +5°C° 0 mm 3 m/s 734 mmHg 85%
    02:00 +5°C° 0 mm 3 m/s 734 mmHg 85%
    03:00 +5°C° 0 mm 3 m/s 734 mmHg 85%
    04:00 +5°C° 0 mm 3 m/s 734 mmHg 85%
    05:00 +5°C° 0,1 mm 3 m/s 734 mmHg 84%
    06:00 +5°C° 0,1 mm 3 m/s 734 mmHg 84%
    07:00 +5°C° 0,1 mm 3 m/s 734 mmHg 84%
    08:00 +7°C° 0,1 mm 3 m/s 734 mmHg 83%
    09:00 +9°C° 0,1 mm 3 m/s 734 mmHg 81%
    10:00 +10°C° 0,1 mm 3 m/s 734 mmHg 80%
    11:00 +11°C° 0 mm 3 m/s 734 mmHg 77%
    12:00 +11°C° 0 mm 3 m/s 734 mmHg 74%
    13:00 +12°C° 0 mm 3 m/s 733 mmHg 71%
    14:00 +12°C° 0 mm 3 m/s 733 mmHg 73%
    15:00 +12°C° 0 mm 3 m/s 733 mmHg 74%
    16:00 +12°C° 0 mm 3 m/s 733 mmHg 75%
    17:00 +10°C° 0 mm 3 m/s 733 mmHg 77%
    18:00 +9°C° 0 mm 3 m/s 733 mmHg 80%
    19:00 +8°C° 0 mm 3 m/s 733 mmHg 82%
    20:00 +8°C° 0 mm 3 m/s 733 mmHg 82%
    21:00 +8°C° 0 mm 3 m/s 733 mmHg 82%
    22:00 +6°C° 0 mm 4 m/s 733 mmHg 82%
    23:00 +6°C° 0 mm 4 m/s 733 mmHg 83%

    Poimâine, 24 Februarie, Sâmbătă

    Timp Temperatura Precipitaţii Vânt Presiune Umiditate
    00:00 +6°C° 0 mm 4 m/s 733 mmHg 83%
    01:00 +6°C° 0 mm 4 m/s 733 mmHg 83%
    02:00 +6°C° 0 mm 4 m/s 733 mmHg 83%
    03:00 +6°C° 0 mm 4 m/s 732 mmHg 83%
    04:00 +6°C° 0 mm 4 m/s 732 mmHg 83%
    05:00 +5°C° 0 mm 4 m/s 732 mmHg 83%
    06:00 +5°C° 0 mm 4 m/s 732 mmHg 84%
    07:00 +5°C° 0 mm 4 m/s 732 mmHg 84%
    08:00 +7°C° 0 mm 4 m/s 733 mmHg 82%
    09:00 +9°C° 0 mm 3 m/s 733 mmHg 79%
    10:00 +10°C° 0 mm 3 m/s 733 mmHg 77%
    11:00 +10°C° 0 mm 3 m/s 733 mmHg 75%
    12:00 +11°C° 0 mm 3 m/s 733 mmHg 73%
    13:00 +12°C° 0 mm 2 m/s 733 mmHg 72%
    14:00 +12°C° 0,1 mm 2 m/s 733 mmHg 73%
    15:00 +12°C° 0,1 mm 2 m/s 733 mmHg 74%
    16:00 +10°C° 0,1 mm 2 m/s 733 mmHg 76%
    17:00 +9°C° 0,1 mm 2 m/s 733 mmHg 78%
    18:00 +8°C° 0,1 mm 2 m/s 733 mmHg 81%
    19:00 +7°C° 0,1 mm 2 m/s 734 mmHg 84%
    20:00 +7°C° 0,1 mm 2 m/s 734 mmHg 83%
    21:00 +7°C° 0,1 mm 2 m/s 735 mmHg 83%
    22:00 +5°C° 0,1 mm 3 m/s 735 mmHg 82%
    23:00 +5°C° 0,1 mm 3 m/s 735 mmHg 82%

    25 Februarie, Duminică

    Timp Temperatura Precipitaţii Vânt Presiune Umiditate
    00:00 +4°C° 0,1 mm 3 m/s 735 mmHg 82%
    01:00 +4°C° 0,1 mm 4 m/s 735 mmHg 81%
    02:00 +3°C° 0,4 mm 4 m/s 735 mmHg 81%
    03:00 +3°C° 0,4 mm 4 m/s 735 mmHg 80%
    04:00 +1°C° 0,4 mm 4 m/s 735 mmHg 79%
    05:00 +1°C° 0,7 mm 5 m/s 735 mmHg 80%
    06:00 0°C° 0,7 mm 5 m/s 736 mmHg 81%
    07:00 0°C° 0,7 mm 5 m/s 736 mmHg 82%
    08:00 0°C° 0,6 mm 5 m/s 736 mmHg 83%
    09:00 -1°C° 0,6 mm 5 m/s 736 mmHg 83%
    10:00 -1°C° 0,6 mm 5 m/s 736 mmHg 83%
    11:00 0°C° 0,3 mm 5 m/s 736 mmHg 81%
    12:00 0°C° 0,3 mm 5 m/s 736 mmHg 80%
    13:00 +1°C° 0,3 mm 4 m/s 735 mmHg 78%
    14:00 +1°C° 0,1 mm 4 m/s 735 mmHg 78%
    15:00 +1°C° 0,1 mm 4 m/s 735 mmHg 78%
    16:00 +1°C° 0,1 mm 4 m/s 735 mmHg 78%
    17:00 0°C° 0 mm 4 m/s 735 mmHg 78%
    18:00 -1°C° 0 mm 4 m/s 735 mmHg 79%
    19:00 -2°C° 0 mm 4 m/s 735 mmHg 79%
    20:00 -2°C° 0,1 mm 5 m/s 735 mmHg 78%
    21:00 -2°C° 0,1 mm 5 m/s 735 mmHg 77%
    22:00 -2°C° 0,1 mm 5 m/s 735 mmHg 77%
    23:00 -2°C° 0,3 mm 5 m/s 734 mmHg 78%

    26 Februarie, Luni

    Timp Temperatura Precipitaţii Vânt Presiune Umiditate
    00:00 -2°C° 0,3 mm 5 m/s 733 mmHg 79%
    01:00 -3°C° 0,3 mm 6 m/s 733 mmHg 80%
    02:00 -3°C° 0,8 mm 6 m/s 732 mmHg 81%
    03:00 -3°C° 0,8 mm 6 m/s 731 mmHg 82%
    04:00 -3°C° 0,8 mm 7 m/s 730 mmHg 83%
    05:00 -3°C° 1,7 mm 7 m/s 730 mmHg 84%
    06:00 -3°C° 1,7 mm 7 m/s 729 mmHg 85%
    07:00 -3°C° 1,7 mm 7 m/s 728 mmHg 86%
    08:00 -3°C° 2,1 mm 6 m/s 729 mmHg 88%
    09:00 -3°C° 2,1 mm 6 m/s 729 mmHg 90%
    10:00 -3°C° 2,1 mm 6 m/s 729 mmHg 92%
    11:00 -1°C° 0,8 mm 5 m/s 728 mmHg 92%
    12:00 -1°C° 0,8 mm 5 m/s 728 mmHg 92%
    13:00 0°C° 0,8 mm 5 m/s 728 mmHg 92%
    14:00 0°C° 0,5 mm 4 m/s 728 mmHg 91%
    15:00 +1°C° 0,5 mm 3 m/s 728 mmHg 91%
    16:00 +1°C° 0,5 mm 3 m/s 728 mmHg 90%
    17:00 +2°C° 0,9 mm 2 m/s 728 mmHg 91%
    18:00 +1°C° 0,9 mm 2 m/s 729 mmHg 93%
    19:00 +1°C° 0,9 mm 2 m/s 729 mmHg 94%
    20:00 +2°C° 0,5 mm 1 m/s 729 mmHg 94%
    21:00 +2°C° 0,5 mm 1 m/s 729 mmHg 94%
    22:00 +2°C° 0,5 mm 1 m/s 730 mmHg 95%
    23:00 +2°C° 0,4 mm 1 m/s 730 mmHg 95%

    27 Februarie, Marţi

    Timp Temperatura Precipitaţii Vânt Presiune Umiditate
    00:00 +2°C° 0,4 mm 1 m/s 730 mmHg 95%
    01:00 +2°C° 0,4 mm 1 m/s 730 mmHg 96%
    02:00 +2°C° 0,3 mm 1 m/s 730 mmHg 96%
    03:00 +2°C° 0,3 mm 1 m/s 730 mmHg 96%
    04:00 +1°C° 0,3 mm 2 m/s 730 mmHg 96%
    05:00 +2°C° 0,3 mm 1 m/s 730 mmHg 95%
    06:00 +2°C° 0,3 mm 1 m/s 730 mmHg 94%
    07:00 +2°C° 0,3 mm 1 m/s 730 mmHg 93%
    08:00 +2°C° 0,3 mm 1 m/s 731 mmHg 91%
    09:00 +2°C° 0,3 mm 2 m/s 731 mmHg 90%
    10:00 +3°C° 0,3 mm 2 m/s 731 mmHg 88%
    11:00 +3°C° 0,3 mm 2 m/s 731 mmHg 87%
    12:00 +2°C° 0,3 mm 3 m/s 732 mmHg 86%
    13:00 +2°C° 0,3 mm 3 m/s 732 mmHg 86%
    14:00 +2°C° 0,1 mm 3 m/s 732 mmHg 84%
    15:00 +2°C° 0,1 mm 3 m/s 732 mmHg 82%
    16:00 +2°C° 0,1 mm 3 m/s 733 mmHg 80%
    17:00 0°C° 0 mm 3 m/s 733 mmHg 82%
    18:00 -1°C° 0 mm 2 m/s 734 mmHg 85%
    19:00 -3°C° 0 mm 2 m/s 734 mmHg 87%
    20:00 -3°C° 0 mm 2 m/s 735 mmHg 87%
    21:00 -4°C° 0 mm 2 m/s 735 mmHg 87%
    22:00 -4°C° 0 mm 2 m/s 736 mmHg 88%
    23:00 -4°C° 0 mm 2 m/s 736 mmHg 87%
    Arată mai mult